Time,TemperatureF,DewpointF,PressureIn,WindDirection,WindDirectionDegrees,WindSpeedMPH,WindSpeedGustMPH,Humidity,HourlyPrecipIn,Conditions,Clouds,dailyrainin,SoftwareType,DateUTC
2013-04-24 00:02:00,37.0,30.6,30.00,NNW,333,9.0,14.0,77,0.00,,,0.03,meteohub,2013-04-24 05:02:00,
2013-04-24 00:07:00,37.0,30.2,30.00,NNW,343,7.0,14.0,76,0.00,,,0.00,meteohub,2013-04-24 05:07:00,
2013-04-24 00:12:00,36.9,30.0,30.01,NNW,332,7.0,14.0,76,0.00,,,0.00,meteohub,2013-04-24 05:12:00,
2013-04-24 00:17:00,36.9,30.0,30.01,NNW,348,10.0,14.0,76,0.00,,,0.00,meteohub,2013-04-24 05:17:00,
2013-04-24 00:22:00,36.9,30.0,30.01,NNW,342,8.0,13.0,76,0.00,,,0.00,meteohub,2013-04-24 05:22:00,
2013-04-24 00:27:00,36.9,30.0,30.01,NNW,343,6.0,15.0,76,0.00,,,0.00,meteohub,2013-04-24 05:27:00,
2013-04-24 00:32:00,36.9,30.0,30.01,NNW,346,6.0,15.0,76,0.00,,,0.00,meteohub,2013-04-24 05:32:00,
2013-04-24 00:37:00,36.7,29.8,30.00,North,355,11.0,12.0,76,0.00,,,0.00,meteohub,2013-04-24 05:37:00,
2013-04-24 00:42:00,36.7,29.8,30.00,NNW,346,7.0,13.0,76,0.00,,,0.00,meteohub,2013-04-24 05:42:00,
2013-04-24 00:47:00,36.7,29.8,30.01,North,349,9.0,13.0,76,0.00,,,0.00,meteohub,2013-04-24 05:47:00,
2013-04-24 00:52:00,36.7,30.2,30.00,NNW,342,10.0,13.0,77,0.00,,,0.00,meteohub,2013-04-24 05:52:00,
2013-04-24 00:57:00,36.5,30.0,30.00,North,355,9.0,13.0,77,0.00,,,0.00,meteohub,2013-04-24 05:57:00,
2013-04-24 01:02:00,36.5,30.0,30.00,NNW,346,6.0,13.0,77,0.00,,,0.00,meteohub,2013-04-24 06:02:00,
2013-04-24 01:07:00,36.3,29.8,30.00,NNW,347,7.0,13.0,77,0.00,,,0.00,meteohub,2013-04-24 06:07:00,
2013-04-24 01:12:00,36.3,29.8,30.01,NNW,339,8.0,12.0,77,0.00,,,0.00,meteohub,2013-04-24 06:12:00,
2013-04-24 01:17:00,36.3,29.8,30.01,NNW,338,7.0,12.0,77,0.00,,,0.00,meteohub,2013-04-24 06:17:00,
2013-04-24 01:22:00,36.3,29.8,30.01,NNW,348,6.0,12.0,77,0.00,,,0.00,meteohub,2013-04-24 06:22:00,
2013-04-24 01:27:00,36.1,30.0,30.01,NNW,340,5.0,12.0,78,0.00,,,0.00,meteohub,2013-04-24 06:27:00,
2013-04-24 01:32:00,36.0,30.0,30.01,NNW,342,5.0,11.0,79,0.00,,,0.00,meteohub,2013-04-24 06:32:00,
2013-04-24 01:37:00,35.8,30.2,30.01,NNW,345,6.0,8.0,80,0.00,,,0.00,meteohub,2013-04-24 06:37:00,
2013-04-24 01:42:00,35.6,29.7,30.01,NNW,340,8.0,8.0,79,0.00,,,0.00,meteohub,2013-04-24 06:42:00,
2013-04-24 01:47:00,35.6,29.7,30.00,NNW,337,5.0,8.0,79,0.00,,,0.00,meteohub,2013-04-24 06:47:00,
2013-04-24 01:52:00,35.6,29.7,30.01,NNW,336,6.0,9.0,79,0.00,,,0.00,meteohub,2013-04-24 06:52:00,
2013-04-24 01:57:00,35.4,29.5,30.00,NNW,338,6.0,9.0,79,0.00,,,0.00,meteohub,2013-04-24 06:57:00,
2013-04-24 02:02:00,35.4,29.8,30.00,NNW,338,5.0,8.0,80,0.00,,,0.00,meteohub,2013-04-24 07:02:00,
2013-04-24 02:07:00,35.4,29.5,30.00,NNW,333,5.0,8.0,79,0.00,,,0.00,meteohub,2013-04-24 07:07:00,
2013-04-24 02:12:00,35.4,29.5,30.00,NNW,339,4.0,9.0,79,0.00,,,0.00,meteohub,2013-04-24 07:12:00,
2013-04-24 02:17:00,35.2,29.3,30.00,NNW,340,4.0,9.0,79,0.00,,,0.00,meteohub,2013-04-24 07:17:00,
2013-04-24 02:22:00,35.2,29.7,30.00,NNW,344,6.0,10.0,80,0.00,,,0.00,meteohub,2013-04-24 07:22:00,
2013-04-24 02:27:00,35.2,29.3,30.01,NNW,338,2.0,10.0,79,0.00,,,0.00,meteohub,2013-04-24 07:27:00,
2013-04-24 02:32:00,35.2,29.3,30.01,NNW,339,3.0,9.0,79,0.00,,,0.00,meteohub,2013-04-24 07:32:00,
2013-04-24 02:37:00,35.1,29.1,30.01,NNW,339,4.0,9.0,79,0.00,,,0.00,meteohub,2013-04-24 07:37:00,
2013-04-24 02:42:00,34.9,29.1,30.01,NNW,337,4.0,8.0,79,0.00,,,0.00,meteohub,2013-04-24 07:42:00,
2013-04-24 02:47:00,34.7,28.9,30.00,NNW,342,5.0,7.0,79,0.00,,,0.00,meteohub,2013-04-24 07:47:00,
2013-04-24 02:52:00,34.3,28.8,30.01,NNW,341,3.0,8.0,80,0.00,,,0.00,meteohub,2013-04-24 07:52:00,
2013-04-24 02:57:00,34.0,28.8,30.01,NNW,341,2.0,8.0,81,0.00,,,0.00,meteohub,2013-04-24 07:57:00,
2013-04-24 03:02:00,33.6,28.4,30.00,NNW,341,7.0,7.0,81,0.00,,,0.00,meteohub,2013-04-24 08:02:00,
2013-04-24 03:07:00,33.6,28.0,30.00,NNW,340,6.0,9.0,80,0.00,,,0.00,meteohub,2013-04-24 08:07:00,
2013-04-24 03:12:00,33.6,28.0,29.99,NNW,340,6.0,9.0,80,0.00,,,0.00,meteohub,2013-04-24 08:12:00,
2013-04-24 03:17:00,33.4,27.9,29.98,NNW,342,4.0,9.0,80,0.00,,,0.00,meteohub,2013-04-24 08:17:00,
2013-04-24 03:22:00,33.3,27.7,29.98,NNW,341,4.0,7.0,80,0.00,,,0.00,meteohub,2013-04-24 08:22:00,
2013-04-24 03:27:00,33.1,27.9,29.99,NNW,341,4.0,7.0,81,0.00,,,0.00,meteohub,2013-04-24 08:27:00,
2013-04-24 03:32:00,32.7,27.9,30.01,NNW,341,2.0,6.0,82,0.00,,,0.00,meteohub,2013-04-24 08:32:00,
2013-04-24 03:37:00,32.7,27.9,30.01,NNW,341,1.0,6.0,82,0.00,,,0.00,meteohub,2013-04-24 08:37:00,
2013-04-24 03:42:00,32.7,27.9,30.00,NNW,341,2.0,4.0,82,0.00,,,0.00,meteohub,2013-04-24 08:42:00,
2013-04-24 03:47:00,32.7,27.9,30.00,NNW,341,3.0,4.0,82,0.00,,,0.00,meteohub,2013-04-24 08:47:00,
2013-04-24 03:52:00,32.7,27.9,30.01,NNW,341,3.0,4.0,82,0.00,,,0.00,meteohub,2013-04-24 08:52:00,
2013-04-24 03:57:00,32.7,27.9,30.00,NNW,341,3.0,4.0,82,0.00,,,0.00,meteohub,2013-04-24 08:57:00,
2013-04-24 04:02:00,32.7,27.9,29.99,NNW,341,4.0,4.0,82,0.00,,,0.00,meteohub,2013-04-24 09:02:00,
2013-04-24 04:07:00,32.5,27.7,30.00,NNW,341,3.0,4.0,82,0.00,,,0.00,meteohub,2013-04-24 09:07:00,
2013-04-24 04:12:00,32.5,27.7,30.00,NNW,341,3.0,4.0,82,0.00,,,0.00,meteohub,2013-04-24 09:12:00,
2013-04-24 04:17:00,32.5,27.7,30.00,NNW,341,3.0,4.0,82,0.00,,,0.00,meteohub,2013-04-24 09:17:00,
2013-04-24 04:22:00,32.5,27.7,30.00,NNW,341,3.0,5.0,82,0.00,,,0.00,meteohub,2013-04-24 09:22:00,
2013-04-24 04:27:00,32.5,27.7,30.00,NNW,341,2.0,5.0,82,0.00,,,0.00,meteohub,2013-04-24 09:27:00,
2013-04-24 04:32:00,32.5,27.7,30.00,NNW,341,2.0,5.0,82,0.00,,,0.00,meteohub,2013-04-24 09:32:00,
2013-04-24 04:37:00,32.5,27.3,30.00,NNW,341,2.0,5.0,81,0.00,,,0.00,meteohub,2013-04-24 09:37:00,
2013-04-24 04:42:00,32.5,27.3,30.00,NNW,341,3.0,4.0,81,0.00,,,0.00,meteohub,2013-04-24 09:42:00,
2013-04-24 04:47:00,32.5,27.7,30.00,NNW,341,4.0,5.0,82,0.00,,,0.00,meteohub,2013-04-24 09:47:00,
2013-04-24 04:52:00,32.7,27.5,30.00,NNW,340,3.0,5.0,81,0.00,,,0.00,meteohub,2013-04-24 09:52:00,
2013-04-24 04:57:00,32.7,27.3,30.00,NNW,337,4.0,6.0,80,0.00,,,0.00,meteohub,2013-04-24 09:57:00,
2013-04-24 05:02:00,32.7,27.3,30.00,NNW,337,1.0,6.0,80,0.00,,,0.00,meteohub,2013-04-24 10:02:00,
2013-04-24 05:07:00,32.7,27.3,30.01,NNW,337,2.0,6.0,80,0.00,,,0.00,meteohub,2013-04-24 10:07:00,
2013-04-24 05:12:00,32.7,27.3,30.01,NNW,337,3.0,5.0,80,0.00,,,0.00,meteohub,2013-04-24 10:12:00,
2013-04-24 05:17:00,32.5,27.1,30.01,NNW,337,3.0,5.0,80,0.00,,,0.00,meteohub,2013-04-24 10:17:00,
2013-04-24 05:22:00,32.5,27.1,30.01,NNW,337,2.0,3.0,80,0.00,,,0.00,meteohub,2013-04-24 10:22:00,
2013-04-24 05:27:00,32.4,27.0,30.01,NNW,337,0.0,5.0,80,0.00,,,0.00,meteohub,2013-04-24 10:27:00,
2013-04-24 05:32:00,32.4,27.0,30.01,NNW,337,1.0,5.0,80,0.00,,,0.00,meteohub,2013-04-24 10:32:00,
2013-04-24 05:37:00,32.2,26.8,30.01,NNW,337,1.0,4.0,80,0.00,,,0.00,meteohub,2013-04-24 10:37:00,
2013-04-24 05:42:00,32.2,26.8,30.01,NNW,337,1.0,2.0,80,0.00,,,0.00,meteohub,2013-04-24 10:42:00,
2013-04-24 05:47:00,32.2,26.8,30.01,NNW,337,1.0,2.0,80,0.00,,,0.00,meteohub,2013-04-24 10:47:00,
2013-04-24 05:52:00,32.2,26.8,30.01,NNW,337,0.0,2.0,80,0.00,,,0.00,meteohub,2013-04-24 10:52:00,
2013-04-24 05:57:00,32.2,26.8,30.02,NNW,337,0.0,2.0,80,0.00,,,0.00,meteohub,2013-04-24 10:57:00,
2013-04-24 06:02:00,32.2,27.0,30.02,NNW,336,2.0,2.0,81,0.00,,,0.00,meteohub,2013-04-24 11:02:00,
2013-04-24 06:07:00,32.2,27.0,30.02,NNW,336,0.0,5.0,81,0.00,,,0.00,meteohub,2013-04-24 11:07:00,
2013-04-24 06:12:00,32.0,26.8,30.02,NNW,336,0.0,5.0,81,0.00,,,0.00,meteohub,2013-04-24 11:12:00,
2013-04-24 06:17:00,32.0,26.8,30.02,NNW,336,0.0,5.0,81,0.00,,,0.00,meteohub,2013-04-24 11:17:00,
2013-04-24 06:22:00,32.0,26.8,30.01,NNW,336,0.0,3.0,81,0.00,,,0.00,meteohub,2013-04-24 11:22:00,
2013-04-24 06:27:00,32.0,27.1,30.02,NNW,336,1.0,3.0,82,0.00,,,0.00,meteohub,2013-04-24 11:27:00,
2013-04-24 06:32:00,32.0,27.1,30.02,NNW,336,0.0,2.0,82,0.00,,,0.00,meteohub,2013-04-24 11:32:00,
2013-04-24 06:37:00,32.2,27.3,30.02,NNW,336,0.0,3.0,82,0.00,,,0.00,meteohub,2013-04-24 11:37:00,
2013-04-24 06:42:00,32.2,27.7,30.02,NNW,336,0.0,3.0,83,0.00,,,0.00,meteohub,2013-04-24 11:42:00,
2013-04-24 06:47:00,32.4,27.5,30.03,NNW,336,1.0,3.0,82,0.00,,,0.00,meteohub,2013-04-24 11:47:00,
2013-04-24 06:52:00,32.4,27.5,30.03,NNW,336,1.0,4.0,82,0.00,,,0.00,meteohub,2013-04-24 11:52:00,
2013-04-24 06:57:00,32.5,27.7,30.03,NNW,336,0.0,4.0,82,0.00,,,0.00,meteohub,2013-04-24 11:57:00,
2013-04-24 07:02:00,32.7,27.5,30.03,NNW,336,3.0,3.0,81,0.00,,,0.00,meteohub,2013-04-24 12:02:00,
2013-04-24 07:07:00,32.9,27.7,30.03,NNW,336,0.0,3.0,81,0.00,,,0.00,meteohub,2013-04-24 12:07:00,
2013-04-24 07:12:00,33.1,27.9,30.03,NNW,336,0.0,3.0,81,0.00,,,0.00,meteohub,2013-04-24 12:12:00,
2013-04-24 07:17:00,33.3,28.0,30.03,NNW,336,2.0,3.0,81,0.00,,,0.00,meteohub,2013-04-24 12:17:00,
2013-04-24 07:22:00,33.4,28.2,30.03,NNW,335,2.0,3.0,81,0.00,,,0.00,meteohub,2013-04-24 12:22:00,
2013-04-24 07:27:00,33.6,28.0,30.03,NNW,335,1.0,4.0,80,0.00,,,0.00,meteohub,2013-04-24 12:27:00,
2013-04-24 07:32:00,34.0,28.4,30.04,NNW,335,0.0,5.0,80,0.00,,,0.00,meteohub,2013-04-24 12:32:00,
2013-04-24 07:37:00,34.2,28.6,30.04,NNW,335,1.0,5.0,80,0.00,,,0.00,meteohub,2013-04-24 12:37:00,
2013-04-24 07:42:00,34.3,28.6,30.04,NNW,335,1.0,5.0,79,0.00,,,0.00,meteohub,2013-04-24 12:42:00,
2013-04-24 07:47:00,34.3,28.6,30.05,NNW,334,2.0,4.0,79,0.00,,,0.00,meteohub,2013-04-24 12:47:00,
2013-04-24 07:52:00,34.5,28.4,30.05,WNW,292,1.0,4.0,78,0.00,,,0.00,meteohub,2013-04-24 12:52:00,
2013-04-24 07:57:00,34.9,28.8,30.05,WNW,292,0.0,7.0,78,0.00,,,0.00,meteohub,2013-04-24 12:57:00,
2013-04-24 08:02:00,35.1,29.1,30.05,WNW,292,0.0,7.0,79,0.00,,,0.00,meteohub,2013-04-24 13:02:00,
2013-04-24 08:07:00,35.1,28.9,30.05,WNW,292,0.0,5.0,78,0.00,,,0.00,meteohub,2013-04-24 13:07:00,
2013-04-24 08:12:00,35.2,28.8,30.04,WNW,296,3.0,5.0,77,0.00,,,0.00,meteohub,2013-04-24 13:12:00,
2013-04-24 08:17:00,35.2,28.4,30.05,WNW,294,3.0,5.0,76,0.00,,,0.00,meteohub,2013-04-24 13:17:00,
2013-04-24 08:22:00,35.2,28.8,30.05,NW,307,1.0,7.0,77,0.00,,,0.00,meteohub,2013-04-24 13:22:00,
2013-04-24 08:27:00,35.2,28.8,30.05,WNW,303,0.0,7.0,77,0.00,,,0.00,meteohub,2013-04-24 13:27:00,
2013-04-24 08:32:00,35.4,28.9,30.04,NW,306,1.0,7.0,77,0.00,,,0.00,meteohub,2013-04-24 13:32:00,
2013-04-24 08:37:00,36.3,30.2,30.04,NW,310,3.0,7.0,78,0.00,,,0.00,meteohub,2013-04-24 13:37:00,
2013-04-24 08:42:00,36.9,30.4,30.04,NW,318,0.0,9.0,77,0.00,,,0.00,meteohub,2013-04-24 13:42:00,
2013-04-24 08:47:00,37.2,30.0,30.04,West,271,4.0,9.0,75,0.00,,,0.00,meteohub,2013-04-24 13:47:00,
2013-04-24 08:52:00,37.6,30.4,30.04,NW,309,2.0,9.0,75,0.00,,,0.00,meteohub,2013-04-24 13:52:00,
2013-04-24 08:57:00,37.9,30.4,30.04,West,273,3.0,9.0,74,0.00,,,0.00,meteohub,2013-04-24 13:57:00,
2013-04-24 09:02:00,38.5,30.9,30.04,NW,316,7.0,9.0,74,0.00,,,0.00,meteohub,2013-04-24 14:02:00,
2013-04-24 09:07:00,39.2,31.3,30.04,West,279,4.0,8.0,73,0.00,,,0.00,meteohub,2013-04-24 14:07:00,
2013-04-24 09:12:00,39.6,30.9,30.04,WNW,293,5.0,8.0,71,0.00,,,0.00,meteohub,2013-04-24 14:12:00,
2013-04-24 09:17:00,39.7,31.1,30.04,WNW,296,4.0,8.0,71,0.00,,,0.00,meteohub,2013-04-24 14:17:00,
2013-04-24 09:22:00,40.1,31.1,30.04,West,269,3.0,7.0,70,0.00,,,0.00,meteohub,2013-04-24 14:22:00,
2013-04-24 09:27:00,40.5,30.7,30.04,WNW,285,4.0,8.0,68,0.00,,,0.00,meteohub,2013-04-24 14:27:00,
2013-04-24 09:32:00,40.5,29.3,30.04,NW,316,4.0,8.0,64,0.00,,,0.00,meteohub,2013-04-24 14:32:00,
2013-04-24 09:37:00,40.8,30.4,30.04,WSW,256,6.0,11.0,66,0.00,,,0.00,meteohub,2013-04-24 14:37:00,
2013-04-24 09:42:00,40.8,29.7,30.04,WSW,242,6.0,11.0,64,0.00,,,0.00,meteohub,2013-04-24 14:42:00,
2013-04-24 09:47:00,41.2,29.5,30.04,WNW,289,4.0,11.0,63,0.00,,,0.00,meteohub,2013-04-24 14:47:00,
2013-04-24 09:52:00,41.5,27.9,30.04,NW,325,4.0,10.0,58,0.00,,,0.00,meteohub,2013-04-24 14:52:00,
2013-04-24 09:57:00,41.2,26.2,30.04,WSW,245,8.0,10.0,55,0.00,,,0.00,meteohub,2013-04-24 14:57:00,
2013-04-24 10:02:00,41.5,28.8,30.04,NW,304,3.0,13.0,60,0.00,,,0.00,meteohub,2013-04-24 15:02:00,
2013-04-24 10:10:00,41.5,27.9,30.04,NW,313,9.0,13.0,58,0.00,,,0.00,meteohub,2013-04-24 15:10:00,
2013-04-24 10:15:00,41.7,25.9,30.04,West,270,4.0,12.0,53,0.00,,,0.00,meteohub,2013-04-24 15:15:00,
2013-04-24 10:20:00,41.9,27.0,30.04,WSW,253,8.0,12.0,55,0.00,,,0.00,meteohub,2013-04-24 15:20:00,
2013-04-24 10:25:00,42.4,30.0,30.04,NW,307,4.0,11.0,61,0.00,,,0.00,meteohub,2013-04-24 15:25:00,
2013-04-24 10:31:00,42.6,28.4,30.04,NW,321,9.0,11.0,57,0.00,,,0.00,meteohub,2013-04-24 15:31:00,
2013-04-24 10:36:00,42.3,28.6,30.04,NW,317,4.0,11.0,58,0.00,,,0.00,meteohub,2013-04-24 15:36:00,
2013-04-24 10:41:00,41.7,25.9,30.04,WSW,252,7.0,11.0,53,0.00,,,0.00,meteohub,2013-04-24 15:41:00,
2013-04-24 10:46:00,42.4,25.5,30.04,West,275,1.0,11.0,51,0.00,,,0.00,meteohub,2013-04-24 15:46:00,
2013-04-24 10:51:00,42.8,26.8,30.04,North,355,3.0,16.0,53,0.00,,,0.00,meteohub,2013-04-24 15:51:00,
2013-04-24 10:57:00,43.3,27.3,30.04,WNW,301,0.0,16.0,53,0.00,,,0.00,meteohub,2013-04-24 15:57:00,
2013-04-24 11:02:00,44.2,27.7,30.04,West,265,2.0,16.0,52,0.00,,,0.00,meteohub,2013-04-24 16:02:00,
2013-04-24 11:07:00,44.1,26.1,30.04,West,276,5.0,12.0,49,0.00,,,0.00,meteohub,2013-04-24 16:07:00,
2013-04-24 11:12:00,44.2,28.2,30.03,NNW,327,7.0,12.0,53,0.00,,,0.00,meteohub,2013-04-24 16:12:00,
2013-04-24 11:17:00,44.2,26.2,30.03,NW,319,3.0,12.0,49,0.00,,,0.00,meteohub,2013-04-24 16:17:00,
2013-04-24 11:22:00,44.4,28.8,30.03,WNW,290,6.0,12.0,54,0.00,,,0.00,meteohub,2013-04-24 16:22:00,
2013-04-24 11:27:00,44.4,25.9,30.03,West,262,9.0,12.0,48,0.00,,,0.00,meteohub,2013-04-24 16:27:00,
2013-04-24 11:32:00,44.8,28.2,30.03,NW,321,10.0,11.0,52,0.00,,,0.00,meteohub,2013-04-24 16:32:00,
2013-04-24 11:37:00,45.1,25.5,30.03,NNW,333,8.0,15.0,46,0.00,,,0.00,meteohub,2013-04-24 16:37:00,
2013-04-24 11:42:00,45.3,28.8,30.02,WSW,250,4.0,15.0,52,0.00,,,0.00,meteohub,2013-04-24 16:42:00,
2013-04-24 11:47:00,45.5,28.9,30.02,West,279,5.0,15.0,52,0.00,,,0.00,meteohub,2013-04-24 16:47:00,
2013-04-24 11:52:00,45.3,27.3,30.02,WNW,288,5.0,11.0,49,0.00,,,0.00,meteohub,2013-04-24 16:52:00,
2013-04-24 11:57:00,45.0,25.9,30.02,West,265,5.0,11.0,47,0.00,,,0.00,meteohub,2013-04-24 16:57:00,
2013-04-24 12:02:00,44.6,25.2,30.02,West,268,10.0,13.0,46,0.00,,,0.00,meteohub,2013-04-24 17:02:00,
2013-04-24 12:07:00,45.1,27.7,30.02,WSW,251,8.0,15.0,50,0.00,,,0.00,meteohub,2013-04-24 17:07:00,
2013-04-24 12:12:00,45.1,24.4,30.02,West,259,7.0,15.0,44,0.00,,,0.00,meteohub,2013-04-24 17:12:00,
2013-04-24 12:17:00,45.1,26.1,30.02,SW,225,6.0,15.0,47,0.00,,,0.00,meteohub,2013-04-24 17:17:00,
2013-04-24 12:22:00,45.5,26.4,30.01,West,261,4.0,18.0,47,0.00,,,0.00,meteohub,2013-04-24 17:22:00,
2013-04-24 12:27:00,45.5,26.4,30.01,WNW,283,7.0,18.0,47,0.00,,,0.00,meteohub,2013-04-24 17:27:00,
2013-04-24 12:32:00,45.3,26.2,30.01,WSW,252,6.0,18.0,47,0.00,,,0.00,meteohub,2013-04-24 17:32:00,
2013-04-24 12:37:00,46.0,26.4,30.01,WSW,247,5.0,15.0,46,0.00,,,0.00,meteohub,2013-04-24 17:37:00,
2013-04-24 12:42:00,46.6,27.0,30.01,WNW,298,3.0,15.0,46,0.00,,,0.00,meteohub,2013-04-24 17:42:00,
2013-04-24 12:47:00,47.5,28.2,30.01,WSW,250,7.0,13.0,47,0.00,,,0.00,meteohub,2013-04-24 17:47:00,
2013-04-24 12:52:00,46.9,25.0,30.01,West,273,4.0,12.0,42,0.00,,,0.00,meteohub,2013-04-24 17:52:00,
2013-04-24 12:57:00,47.1,29.5,30.01,WSW,248,6.0,14.0,50,0.00,,,0.00,meteohub,2013-04-24 17:57:00,
2013-04-24 13:02:00,47.1,27.9,30.00,WSW,242,15.0,15.0,47,0.00,,,0.00,meteohub,2013-04-24 18:02:00,
2013-04-24 13:07:00,47.8,26.4,30.01,NW,323,2.0,15.0,43,0.00,,,0.00,meteohub,2013-04-24 18:07:00,
2013-04-24 13:12:00,47.7,27.3,30.01,WSW,253,9.0,15.0,45,0.00,,,0.00,meteohub,2013-04-24 18:12:00,
2013-04-24 13:17:00,47.5,27.7,30.00,SW,234,16.0,17.0,46,0.00,,,0.00,meteohub,2013-04-24 18:17:00,
2013-04-24 13:22:00,47.5,25.5,30.01,West,266,8.0,21.0,42,0.00,,,0.00,meteohub,2013-04-24 18:22:00,
2013-04-24 13:27:00,47.1,26.2,30.00,West,272,13.0,21.0,44,0.00,,,0.00,meteohub,2013-04-24 18:27:00,
2013-04-24 13:32:00,47.7,28.4,30.00,West,265,8.0,21.0,47,0.00,,,0.00,meteohub,2013-04-24 18:32:00,
2013-04-24 13:37:00,47.5,26.1,30.00,SW,234,10.0,16.0,43,0.00,,,0.00,meteohub,2013-04-24 18:37:00,
2013-04-24 13:42:00,48.6,28.8,30.00,WNW,298,9.0,20.0,46,0.00,,,0.00,meteohub,2013-04-24 18:42:00,
2013-04-24 13:47:00,47.8,27.0,30.00,WSW,244,11.0,20.0,44,0.00,,,0.00,meteohub,2013-04-24 18:47:00,
2013-04-24 13:52:00,48.2,27.3,30.00,SW,234,9.0,17.0,44,0.00,,,0.00,meteohub,2013-04-24 18:52:00,
2013-04-24 13:57:00,48.4,26.4,30.00,WSW,250,9.0,16.0,42,0.00,,,0.00,meteohub,2013-04-24 18:57:00,
2013-04-24 14:02:00,48.7,27.9,30.00,SW,236,13.0,16.0,44,0.00,,,0.00,meteohub,2013-04-24 19:02:00,
2013-04-24 14:07:00,48.4,26.4,30.00,West,280,6.0,17.0,42,0.00,,,0.00,meteohub,2013-04-24 19:07:00,
2013-04-24 14:12:00,48.2,27.3,30.00,WNW,300,7.0,17.0,44,0.00,,,0.00,meteohub,2013-04-24 19:12:00,
2013-04-24 14:17:00,49.1,27.0,30.00,WSW,257,7.0,17.0,42,0.00,,,0.00,meteohub,2013-04-24 19:17:00,
2013-04-24 14:22:00,49.3,28.8,30.00,NW,311,3.0,13.0,45,0.00,,,0.00,meteohub,2013-04-24 19:22:00,
2013-04-24 14:27:00,48.9,25.7,30.01,WSW,248,8.0,19.0,40,0.00,,,0.00,meteohub,2013-04-24 19:27:00,
2013-04-24 14:32:00,48.7,26.6,30.00,WNW,289,7.0,19.0,42,0.00,,,0.00,meteohub,2013-04-24 19:32:00,
2013-04-24 14:37:00,49.3,26.1,30.01,WSW,257,2.0,19.0,40,0.00,,,0.00,meteohub,2013-04-24 19:37:00,
2013-04-24 14:42:00,49.3,23.5,30.00,WSW,251,5.0,15.0,36,0.00,,,0.00,meteohub,2013-04-24 19:42:00,
2013-04-24 14:47:00,48.6,24.1,30.00,WSW,252,12.0,15.0,38,0.00,,,0.00,meteohub,2013-04-24 19:47:00,
2013-04-24 14:52:00,49.3,27.7,30.00,NW,309,5.0,18.0,43,0.00,,,0.00,meteohub,2013-04-24 19:52:00,
2013-04-24 14:57:00,50.0,27.9,30.00,WSW,256,6.0,18.0,42,0.00,,,0.00,meteohub,2013-04-24 19:57:00,
2013-04-24 15:02:00,50.4,27.5,30.00,West,268,15.0,18.0,41,0.00,,,0.00,meteohub,2013-04-24 20:02:00,
2013-04-24 15:07:00,49.8,25.9,30.00,West,265,10.0,16.0,39,0.00,,,0.00,meteohub,2013-04-24 20:07:00,
2013-04-24 15:12:00,50.2,29.1,30.00,West,267,5.0,16.0,44,0.00,,,0.00,meteohub,2013-04-24 20:12:00,
2013-04-24 15:17:00,50.2,26.2,30.00,West,263,5.0,15.0,39,0.00,,,0.00,meteohub,2013-04-24 20:17:00,
2013-04-24 15:22:00,50.4,27.5,30.00,West,259,10.0,14.0,41,0.00,,,0.00,meteohub,2013-04-24 20:22:00,
2013-04-24 15:27:00,50.2,25.5,30.00,WSW,240,7.0,14.0,38,0.00,,,0.00,meteohub,2013-04-24 20:27:00,
2013-04-24 15:32:00,50.7,29.1,30.00,WSW,258,9.0,14.0,43,0.00,,,0.00,meteohub,2013-04-24 20:32:00,
2013-04-24 15:37:00,50.4,26.4,30.00,West,260,6.0,20.0,39,0.00,,,0.00,meteohub,2013-04-24 20:37:00,
2013-04-24 15:42:00,51.3,29.5,30.00,WNW,285,8.0,20.0,43,0.00,,,0.00,meteohub,2013-04-24 20:42:00,
2013-04-24 15:47:00,50.4,26.4,29.99,West,269,7.0,20.0,39,0.00,,,0.00,meteohub,2013-04-24 20:47:00,
2013-04-24 15:52:00,51.1,28.2,29.99,WSW,242,15.0,20.0,41,0.00,,,0.00,meteohub,2013-04-24 20:52:00,
2013-04-24 15:57:00,50.5,25.9,29.99,WSW,246,8.0,20.0,38,0.00,,,0.00,meteohub,2013-04-24 20:57:00,
2013-04-24 16:02:00,50.9,26.8,29.99,WSW,243,13.0,18.0,39,0.00,,,0.00,meteohub,2013-04-24 21:02:00,
2013-04-24 16:07:00,51.1,28.2,29.99,WSW,250,9.0,18.0,41,0.00,,,0.00,meteohub,2013-04-24 21:07:00,
2013-04-24 16:12:00,50.5,24.6,29.99,West,268,3.0,19.0,36,0.00,,,0.00,meteohub,2013-04-24 21:12:00,
2013-04-24 16:17:00,50.7,26.6,29.99,SW,234,10.0,19.0,39,0.00,,,0.00,meteohub,2013-04-24 21:17:00,
2013-04-24 16:22:00,51.3,26.6,29.99,SW,236,15.0,18.0,38,0.00,,,0.00,meteohub,2013-04-24 21:22:00,
2013-04-24 16:27:00,51.3,27.7,29.99,WSW,246,11.0,16.0,40,0.00,,,0.00,meteohub,2013-04-24 21:27:00,
2013-04-24 16:32:00,51.4,27.3,29.99,WSW,246,16.0,22.0,39,0.00,,,0.00,meteohub,2013-04-24 21:32:00,
2013-04-24 16:37:00,51.1,25.0,29.99,WNW,282,7.0,22.0,36,0.00,,,0.00,meteohub,2013-04-24 21:37:00,
2013-04-24 16:42:00,51.3,28.4,29.99,West,271,9.0,22.0,41,0.00,,,0.00,meteohub,2013-04-24 21:42:00,
2013-04-24 16:47:00,51.3,25.9,29.99,WSW,250,13.0,19.0,37,0.00,,,0.00,meteohub,2013-04-24 21:47:00,
2013-04-24 16:52:00,51.1,27.0,29.99,WSW,250,9.0,15.0,39,0.00,,,0.00,meteohub,2013-04-24 21:52:00,
2013-04-24 16:57:00,51.1,25.7,29.99,West,271,14.0,15.0,37,0.00,,,0.00,meteohub,2013-04-24 21:57:00,
2013-04-24 17:02:00,51.3,26.6,30.00,WNW,288,6.0,16.0,38,0.00,,,0.00,meteohub,2013-04-24 22:02:00,
2013-04-24 17:07:00,51.4,25.3,30.00,NW,305,8.0,16.0,36,0.00,,,0.00,meteohub,2013-04-24 22:07:00,
2013-04-24 17:12:00,51.1,26.4,30.00,WNW,284,9.0,16.0,38,0.00,,,0.00,meteohub,2013-04-24 22:12:00,
2013-04-24 17:17:00,51.3,26.6,30.00,West,269,8.0,19.0,38,0.00,,,0.00,meteohub,2013-04-24 22:17:00,
2013-04-24 17:22:00,50.5,25.9,30.00,West,262,6.0,19.0,38,0.00,,,0.00,meteohub,2013-04-24 22:22:00,
2013-04-24 17:27:00,51.1,27.7,30.00,West,266,5.0,15.0,40,0.00,,,0.00,meteohub,2013-04-24 22:27:00,
2013-04-24 17:32:00,50.5,26.4,30.00,West,279,10.0,15.0,39,0.00,,,0.00,meteohub,2013-04-24 22:32:00,
2013-04-24 17:37:00,50.4,28.8,29.99,WSW,258,5.0,12.0,43,0.00,,,0.00,meteohub,2013-04-24 22:37:00,
2013-04-24 17:42:00,51.1,27.7,30.00,WSW,242,13.0,13.0,40,0.00,,,0.00,meteohub,2013-04-24 22:42:00,
2013-04-24 17:47:00,51.3,27.7,29.99,West,277,6.0,15.0,40,0.00,,,0.00,meteohub,2013-04-24 22:47:00,
2013-04-24 17:52:00,51.4,27.9,29.99,WSW,257,6.0,15.0,40,0.00,,,0.00,meteohub,2013-04-24 22:52:00,
2013-04-24 17:57:00,51.4,27.3,29.99,WSW,246,12.0,15.0,39,0.00,,,0.00,meteohub,2013-04-24 22:57:00,
2013-04-24 18:02:00,50.9,26.8,29.99,WSW,256,9.0,17.0,39,0.00,,,0.00,meteohub,2013-04-24 23:02:00,
2013-04-24 18:07:00,51.1,28.2,29.99,WSW,246,9.0,17.0,41,0.00,,,0.00,meteohub,2013-04-24 23:07:00,
2013-04-24 18:12:00,50.7,27.9,29.99,WSW,238,11.0,17.0,41,0.00,,,0.00,meteohub,2013-04-24 23:12:00,
2013-04-24 18:17:00,50.7,27.9,29.99,WSW,243,8.0,15.0,41,0.00,,,0.00,meteohub,2013-04-24 23:17:00,
2013-04-24 18:22:00,50.7,28.4,29.99,WSW,255,9.0,14.0,42,0.00,,,0.00,meteohub,2013-04-24 23:22:00,
2013-04-24 18:27:00,50.4,27.5,29.99,WNW,288,10.0,15.0,41,0.00,,,0.00,meteohub,2013-04-24 23:27:00,
2013-04-24 18:32:00,50.4,27.5,29.99,West,262,5.0,15.0,41,0.00,,,0.00,meteohub,2013-04-24 23:32:00,
2013-04-24 18:37:00,50.4,28.2,29.99,West,260,4.0,15.0,42,0.00,,,0.00,meteohub,2013-04-24 23:37:00,
2013-04-24 18:42:00,50.4,27.0,29.99,WSW,239,10.0,12.0,40,0.00,,,0.00,meteohub,2013-04-24 23:42:00,
2013-04-24 18:47:00,50.2,29.7,29.99,SW,230,8.0,13.0,45,0.00,,,0.00,meteohub,2013-04-24 23:47:00,
2013-04-24 18:52:00,50.2,28.6,29.99,West,262,8.0,13.0,43,0.00,,,0.00,meteohub,2013-04-24 23:52:00,
2013-04-24 18:57:00,49.6,27.5,29.99,SW,234,8.0,13.0,42,0.00,,,0.00,meteohub,2013-04-24 23:57:00,
2013-04-24 19:02:00,49.3,28.8,29.99,WSW,243,5.0,13.0,45,0.00,,,0.00,meteohub,2013-04-25 00:02:00,
2013-04-24 19:07:00,48.9,28.0,29.99,SW,235,4.0,13.0,44,0.00,,,0.00,meteohub,2013-04-25 00:07:00,
2013-04-24 19:12:00,48.4,29.1,29.99,WSW,248,3.0,11.0,47,0.00,,,0.00,meteohub,2013-04-25 00:12:00,
2013-04-24 19:17:00,47.8,29.1,29.99,WSW,248,4.0,11.0,48,0.00,,,0.00,meteohub,2013-04-25 00:17:00,
2013-04-24 19:22:00,47.1,29.5,30.00,WSW,248,4.0,9.0,50,0.00,,,0.00,meteohub,2013-04-25 00:22:00,
2013-04-24 19:27:00,46.8,29.7,29.99,WSW,248,2.0,7.0,51,0.00,,,0.00,meteohub,2013-04-25 00:27:00,
2013-04-24 19:32:00,46.6,28.9,30.00,SW,236,4.0,6.0,50,0.00,,,0.00,meteohub,2013-04-25 00:32:00,
2013-04-24 19:37:00,46.0,28.9,30.00,SW,236,4.0,6.0,51,0.00,,,0.00,meteohub,2013-04-25 00:37:00,
2013-04-24 19:42:00,45.3,29.1,30.00,SW,236,3.0,6.0,53,0.00,,,0.00,meteohub,2013-04-25 00:42:00,
2013-04-24 19:47:00,44.2,28.6,30.00,SW,236,4.0,6.0,54,0.00,,,0.00,meteohub,2013-04-25 00:47:00,
2013-04-24 19:52:00,43.5,28.9,30.00,SW,236,3.0,5.0,56,0.00,,,0.00,meteohub,2013-04-25 00:52:00,
2013-04-24 19:57:00,43.7,29.5,30.00,SW,236,3.0,6.0,57,0.00,,,0.00,meteohub,2013-04-25 00:57:00,
2013-04-24 20:02:00,43.5,28.9,30.00,SW,236,5.0,6.0,56,0.00,,,0.00,meteohub,2013-04-25 01:02:00,
2013-04-24 20:07:00,43.3,29.5,30.00,SW,236,3.0,6.0,58,0.00,,,0.00,meteohub,2013-04-25 01:07:00,
2013-04-24 20:12:00,43.0,29.3,30.00,SW,236,3.0,5.0,58,0.00,,,0.00,meteohub,2013-04-25 01:12:00,
2013-04-24 20:17:00,42.4,29.1,30.00,SW,236,3.0,5.0,59,0.00,,,0.00,meteohub,2013-04-25 01:17:00,
2013-04-24 20:22:00,42.3,28.9,30.01,SW,236,3.0,5.0,59,0.00,,,0.00,meteohub,2013-04-25 01:22:00,
2013-04-24 20:27:00,41.5,29.5,30.01,SW,236,2.0,4.0,62,0.00,,,0.00,meteohub,2013-04-25 01:27:00,
2013-04-24 20:32:00,41.4,29.7,30.01,SW,236,5.0,5.0,63,0.00,,,0.00,meteohub,2013-04-25 01:32:00,
2013-04-24 20:37:00,42.3,30.6,30.01,SW,223,4.0,6.0,63,0.00,,,0.00,meteohub,2013-04-25 01:37:00,
2013-04-24 20:42:00,43.3,30.7,30.01,SW,217,4.0,6.0,61,0.00,,,0.00,meteohub,2013-04-25 01:42:00,
2013-04-24 20:47:00,43.9,31.3,30.01,SW,215,4.0,7.0,61,0.00,,,0.00,meteohub,2013-04-25 01:47:00,
2013-04-24 20:52:00,44.1,31.1,30.02,SSW,205,5.0,7.0,60,0.00,,,0.00,meteohub,2013-04-25 01:52:00,
2013-04-24 20:57:00,44.2,31.3,30.02,SSW,207,6.0,7.0,60,0.00,,,0.00,meteohub,2013-04-25 01:57:00,
2013-04-24 21:02:00,44.1,31.5,30.02,SSW,209,5.0,8.0,61,0.00,,,0.00,meteohub,2013-04-25 02:02:00,
2013-04-24 21:07:00,43.2,31.1,30.02,SSW,209,5.0,8.0,62,0.00,,,0.00,meteohub,2013-04-25 02:07:00,
2013-04-24 21:12:00,43.3,31.6,30.02,SSW,207,6.0,8.0,63,0.00,,,0.00,meteohub,2013-04-25 02:12:00,
2013-04-24 21:17:00,43.9,31.6,30.02,SSW,209,5.0,7.0,62,0.00,,,0.00,meteohub,2013-04-25 02:17:00,
2013-04-24 21:22:00,43.7,32.0,30.02,SSW,211,7.0,7.0,63,0.00,,,0.00,meteohub,2013-04-25 02:22:00,
2013-04-24 21:27:00,43.9,31.6,30.02,SSW,209,7.0,10.0,62,0.00,,,0.00,meteohub,2013-04-25 02:27:00,
2013-04-24 21:32:00,44.2,31.6,30.02,SSW,205,7.0,11.0,61,0.00,,,0.00,meteohub,2013-04-25 02:32:00,
2013-04-24 21:37:00,44.4,31.8,30.02,SSW,211,7.0,11.0,61,0.00,,,0.00,meteohub,2013-04-25 02:37:00,
2013-04-24 21:42:00,44.6,32.0,30.02,SSW,202,7.0,11.0,61,0.00,,,0.00,meteohub,2013-04-25 02:42:00,
2013-04-24 21:47:00,44.4,31.8,30.02,SSW,196,7.0,10.0,61,0.00,,,0.00,meteohub,2013-04-25 02:47:00,
2013-04-24 21:52:00,44.4,32.2,30.01,South,189,11.0,11.0,62,0.00,,,0.00,meteohub,2013-04-25 02:52:00,
2013-04-24 21:57:00,44.4,31.8,30.01,South,188,9.0,11.0,61,0.00,,,0.00,meteohub,2013-04-25 02:57:00,
2013-04-24 22:02:00,44.2,32.0,30.01,SSW,204,7.0,11.0,62,0.00,,,0.00,meteohub,2013-04-25 03:02:00,
2013-04-24 22:07:00,43.7,32.4,30.01,SSW,192,7.0,11.0,64,0.00,,,0.00,meteohub,2013-04-25 03:07:00,
2013-04-24 22:12:00,43.7,32.4,30.01,South,191,9.0,11.0,64,0.00,,,0.00,meteohub,2013-04-25 03:12:00,
2013-04-24 22:17:00,44.1,32.7,30.01,South,184,13.0,13.0,64,0.00,,,0.00,meteohub,2013-04-25 03:17:00,
2013-04-24 22:22:00,44.1,32.7,30.01,South,186,10.0,14.0,64,0.00,,,0.00,meteohub,2013-04-25 03:22:00,
2013-04-24 22:27:00,43.9,32.5,30.01,South,184,7.0,14.0,64,0.00,,,0.00,meteohub,2013-04-25 03:27:00,
2013-04-24 22:32:00,43.7,32.7,30.01,SSW,197,8.0,14.0,65,0.00,,,0.00,meteohub,2013-04-25 03:32:00,
2013-04-24 22:37:00,43.5,33.3,30.01,SSW,212,7.0,11.0,67,0.00,,,0.00,meteohub,2013-04-25 03:37:00,
2013-04-24 22:42:00,43.9,33.3,30.01,SSW,194,7.0,11.0,66,0.00,,,0.00,meteohub,2013-04-25 03:42:00,
2013-04-24 22:47:00,44.1,33.4,30.01,SSW,198,9.0,12.0,66,0.00,,,0.00,meteohub,2013-04-25 03:47:00,
2013-04-24 22:52:00,44.2,33.3,30.01,South,189,12.0,12.0,65,0.00,,,0.00,meteohub,2013-04-25 03:52:00,
2013-04-24 22:57:00,44.2,33.6,30.00,SSW,194,8.0,14.0,66,0.00,,,0.00,meteohub,2013-04-25 03:57:00,
2013-04-24 23:01:00,44.2,33.3,30.00,SSW,202,10.0,14.0,65,0.00,,,0.00,meteohub,2013-04-25 04:01:00,
2013-04-24 23:02:00,44.2,33.6,30.00,South,190,11.0,14.0,66,0.00,,,0.00,meteohub,2013-04-25 04:02:00,
2013-04-24 23:05:00,44.2,33.3,30.00,SSW,197,9.0,14.0,65,0.00,,,0.00,meteohub,2013-04-25 04:05:00,
2013-04-24 23:07:00,44.2,33.6,30.00,SSW,205,7.0,14.0,66,0.00,,,0.00,meteohub,2013-04-25 04:07:00,
2013-04-24 23:12:00,44.4,33.8,30.00,South,186,11.0,13.0,66,0.00,,,0.00,meteohub,2013-04-25 04:12:00,
2013-04-24 23:18:00,44.6,33.6,30.00,South,190,9.0,16.0,65,0.00,,,0.00,meteohub,2013-04-25 04:18:00,
2013-04-24 23:23:00,44.8,33.8,30.00,SSW,192,8.0,16.0,65,0.00,,,0.00,meteohub,2013-04-25 04:23:00,
2013-04-24 23:28:00,44.8,33.8,29.99,SSW,197,9.0,17.0,65,0.00,,,0.00,meteohub,2013-04-25 04:28:00,
2013-04-24 23:33:00,44.8,33.8,29.99,SSW,205,10.0,17.0,65,0.00,,,0.00,meteohub,2013-04-25 04:33:00,
2013-04-24 23:38:00,44.8,33.8,29.99,SSW,192,10.0,17.0,65,0.00,,,0.00,meteohub,2013-04-25 04:38:00,
2013-04-24 23:43:00,44.8,33.8,29.99,SSW,200,10.0,17.0,65,0.00,,,0.00,meteohub,2013-04-25 04:43:00,
2013-04-24 23:49:00,44.8,33.8,30.00,SSW,207,13.0,17.0,65,0.00,,,0.00,meteohub,2013-04-25 04:49:00,
2013-04-24 23:54:00,44.6,33.6,30.00,SSW,212,11.0,17.0,65,0.00,,,0.00,meteohub,2013-04-25 04:54:00,
2013-04-24 23:59:00,44.8,32.9,30.00,SSW,203,17.0,19.0,63,0.00,,,0.00,meteohub,2013-04-25 04:59:00,